EW1854 Weather Reports


Display with metric or nautical units.
time (UTC)temp
F
wind
direction
speed
MPH
gust
MPH
rain 1hr
in
rain 24hr
in
rain mn
in
humidity
%
barometer
mb
20210802180256 96 200 3.0 8.0 0.00 0.00 0.00 38 1013.0
20210802174648 94 161 0.0 5.0 0.00 0.00 0.00 40 1013.4
20210802173348 94 110 2.0 6.0 0.00 0.00 0.00 41 1013.5
20210802171656 93 113 1.0 6.0 0.00 0.00 0.00 42 1013.7
20210802170205 92 87 2.0 7.0 0.00 0.00 0.00 44 1013.7
20210802164726 90 111 3.0 7.0 0.00 0.00 0.00 45 1013.8
20210802163147 89 113 2.0 8.0 0.00 0.00 0.00 47 1013.9
20210802161624 89 91 4.0 9.0 0.00 0.00 0.00 48 1014.0
20210802160045 88 106 5.0 10.0 0.00 0.00 0.00 50 1014.2
20210802154613 87 150 4.0 8.0 0.00 0.00 0.00 50 1014.1
20210802153053 86 96 4.0 9.0 0.00 0.00 0.00 53 1014.4
20210802151531 85 103 4.0 9.0 0.00 0.00 0.00 56 1014.6
20210802150114 83 84 4.0 8.0 0.00 0.00 0.00 59 1014.6
20210802144533 83 70 3.0 6.0 0.00 0.00 0.00 59 1014.7
20210802143028 82 111 1.0 6.0 0.00 0.00 0.00 60 1014.7
20210802141520 80 132 1.0 4.0 0.00 0.00 0.00 65 1014.6
20210802140031 78 64 0.0 2.0 0.00 0.00 0.00 68 1014.0
20210802134609 77 50 0.0 0.0 0.00 0.00 0.00 70 1014.0
20210802133126 76 63 0.0 0.0 0.00 0.00 0.00 71 1013.9
20210802131718 76 103 0.0 0.0 0.00 0.00 0.00 70 1013.8
20210802130039 76 99 0.0 2.0 0.00 0.00 0.00 70 1013.7
20210802124537 76 94 0.0 0.0 0.00 0.00 0.00 69 1013.5
20210802123043 77 115 0.0 0.0 0.00 0.00 0.00 68 1013.3
20210802121621 77 107 0.0 2.0 0.00 0.00 0.00 67 1013.2
20210802120053 77 86 0.0 4.0 0.00 0.00 0.00 66 1013.1
20210802114529 77 73 1.0 3.0 0.00 0.00 0.00 66 1012.9
20210802113031 78 84 0.0 0.0 0.00 0.00 0.00 66 1012.7
20210802111533 78 86 0.0 0.0 0.00 0.00 0.00 66 1012.6
20210802110109 79 78 0.0 0.0 0.00 0.00 0.00 64 1012.6
20210802104558 78 77 0.0 1.0 0.00 0.00 0.00 64 1012.3
20210802103015 79 91 0.0 3.0 0.00 0.00 0.00 63 1012.3
20210802101605 79 80 0.0 0.0 0.00 0.00 0.00 63 1012.1
20210802100017 78 82 0.0 0.0 0.00 0.00 0.00 63 1012.2
20210802094509 79 342 0.0 0.0 0.00 0.00 0.00 62 1012.0
20210802093005 80 15 0.0 0.0 0.00 0.00 0.00 60 1012.0
20210802091510 80 96 0.0 3.0 0.00 0.00 0.00 59 1011.9
20210802090015 80 80 0.0 2.0 0.00 0.00 0.00 59 1011.9
20210802084509 80 69 0.0 2.0 0.00 0.00 0.00 59 1011.9
20210802083012 80 54 0.0 2.0 0.00 0.00 0.00 59 1012.0
20210802081517 80 65 0.0 0.0 0.00 0.00 0.00 60 1012.0
20210802080001 80 161 0.0 3.0 0.00 0.00 0.00 61 1012.0
20210802074703 81 49 0.0 0.0 0.00 0.00 0.00 59 1011.9
20210802073159 82 49 0.0 0.0 0.00 0.00 0.00 57 1012.1
20210802071711 83 49 0.0 3.0 0.00 0.00 0.00 55 1011.9
20210802070208 83 53 1.0 3.0 0.00 0.00 0.00 53 1012.2
20210802064648 84 75 1.0 2.0 0.00 0.00 0.00 53 1012.2
20210802063217 83 87 0.0 2.0 0.00 0.00 0.00 55 1012.2
20210802061638 84 92 0.0 0.0 0.00 0.00 0.00 52 1012.2
20210802060130 84 65 0.0 2.0 0.00 0.00 0.00 52 1012.2
20210802054659 84 69 0.0 0.0 0.00 0.00 0.00 51 1012.1
20210802053203 85 40 0.0 2.0 0.00 0.00 0.00 49 1012.2
20210802051635 86 344 0.0 2.0 0.00 0.00 0.00 46 1012.2
20210802050111 87 306 0.0 2.0 0.00 0.00 0.00 45 1012.2
20210802044609 88 313 0.0 2.0 0.00 0.00 0.00 44 1012.0
20210802043145 88 316 1.0 4.0 0.00 0.00 0.00 42 1012.1
20210802041648 89 319 1.0 3.0 0.00 0.00 0.00 42 1012.0
20210802040132 89 319 1.0 4.0 0.00 0.00 0.00 41 1012.0
20210802034631 89 288 1.0 3.0 0.00 0.00 0.00 40 1011.7
20210802033054 89 307 3.0 8.0 0.00 0.00 0.00 40 1011.4
20210802031621 89 311 2.0 4.0 0.00 0.00 0.00 41 1011.2
20210802030125 90 318 1.0 3.0 0.00 0.00 0.00 41 1011.2
20210802024717 91 313 0.0 3.0 0.00 0.00 0.00 39 1011.1
20210802023054 92 317 2.0 4.0 0.00 0.00 0.00 38 1010.9
20210802021715 92 304 1.0 7.0 0.00 0.00 0.00 37 1010.7
20210802020148 93 312 1.0 5.0 0.00 0.00 0.00 35 1010.5
20210802014643 93 304 3.0 11.0 0.00 0.00 0.00 34 1010.6
20210802013134 94 312 2.0 6.0 0.00 0.00 0.00 34 1010.5
20210802011711 95 329 3.0 8.0 0.00 0.00 0.00 33 1010.5
20210802010053 95 327 4.0 11.0 0.00 0.00 0.00 33 1010.5
20210802004555 96 265 3.0 8.0 0.00 0.00 0.00 33 1010.5
20210802003047 96 301 5.0 13.0 0.00 0.00 0.00 33 1010.4
20210802001625 96 292 3.0 9.0 0.00 0.00 0.00 31 1010.3
20210802000056 97 321 2.0 12.0 0.00 0.00 0.00 31 1010.6
20210801234637 98 283 4.0 10.0 0.00 0.00 0.00 30 1010.7
20210801233114 97 209 3.0 13.0 0.00 0.00 0.00 31 1010.7
20210801231605 97 271 2.0 11.0 0.00 0.00 0.00 31 1011.0
20210801230106 98 250 1.0 8.0 0.00 0.00 0.00 31 1011.1
20210801224601 97 49 4.0 11.0 0.00 0.00 0.00 32 1011.5
20210801223058 97 336 3.0 11.0 0.00 0.00 0.00 33 1011.5
20210801221536 96 312 6.0 11.0 0.00 0.00 0.00 33 1011.5
20210801220031 98 244 2.0 7.0 0.00 0.00 0.00 32 1011.9
20210801214555 97 298 3.0 10.0 0.00 0.00 0.00 33 1012.0
20210801213044 97 313 3.0 10.0 0.00 0.00 0.00 32 1012.2
20210801211534 97 284 3.0 11.0 0.00 0.00 0.00 33 1012.1
20210801210054 98 325 1.0 11.0 0.00 0.00 0.00 32 1012.2
20210801204527 97 257 2.0 7.0 0.00 0.00 0.00 35 1012.3
20210801203017 96 325 2.0 10.0 0.00 0.00 0.00 34 1012.4
20210801201514 95 309 3.0 9.0 0.00 0.00 0.00 35 1012.5
20210801200029 96 295 2.0 10.0 0.00 0.00 0.00 34 1012.8
20210801194528 96 286 2.0 6.0 0.00 0.00 0.00 36 1013.0
20210801193022 96 339 1.0 9.0 0.00 0.00 0.00 36 1013.1
20210801191510 96 37 1.0 7.0 0.00 0.00 0.00 35 1013.2
20210801190008 97 290 1.0 4.0 0.00 0.00 0.00 36 1013.4
20210801184505 95 190 1.0 7.0 0.00 0.00 0.00 37 1013.6
20210801183005 94 209 0.0 7.0 0.00 0.00 0.00 40 1014.0
20210801181514 94 329 1.0 5.0 0.00 0.00 0.00 40 1014.1